Location: Bęczków
(50.8761°N, 20.8028°E)
Time: 02:17:47
(UTC+02:00)

Envisat - Pass Details

Date: 22 March 2019
Orbit: 764 x 766 km, 98.2° (Epoch: 25 April)

Event Time Altitude Azimuth Distance (km) Brightness Sun altitude
Rises 19:39:47 0° 217° (SW) 3,225 6.4 -17.2°
Reaches altitude 10° 19:43:10 10° 241° (WSW) 2,305 6.0 -17.7°
Maximum altitude 19:45:56 15° 274° (W) 2,008 6.1 -18.1°
Drops below altitude 10° 19:48:42 10° 307° (NW) 2,314 6.7 -18.5°
Sets 19:52:08 0° 332° (NNW) 3,247 7.2 -19.0°
